This is the latest recevied weather packets stored in our database for station/object N7ZAP. If no packets are shown the sender has not sent any weather packets the latest 1 day(s).
| Time | Temp. | Humidity | Pressure | Rain* | Wind** | Luminosity | Snow |
|---|---|---|---|---|---|---|---|
| 1778042593 | 11.67° C | 67% | 1014.5 hPa | 0 mm | - | - | - |
| 1778042290 | 11.67° C | 66% | 1014 hPa | 0 mm | - | - | - |
| 1778041686 | 11.67° C | 69% | 1013.8 hPa | 0 mm | - | - | - |
| 1778041083 | 11.67° C | 69% | 1013.9 hPa | 0 mm | - | - | - |
| 1778040779 | 12.22° C | 68% | 1013.9 hPa | 0 mm | - | - | - |
| 1778040477 | 12.22° C | 68% | 1014 hPa | 0 mm | - | - | - |
| 1778040174 | 12.22° C | 67% | 1013.8 hPa | 0 mm | - | - | - |
| 1778039870 | 12.78° C | 65% | 1013.4 hPa | 0 mm | - | - | - |
| 1778039567 | 12.78° C | 64% | 1013.7 hPa | 0 mm | - | - | - |
| 1778038658 | 12.78° C | 62% | 1013.2 hPa | 0 mm | - | - | - |
| 1778038355 | 12.78° C | 62% | 1012.9 hPa | 0 mm | - | - | - |
| 1778038052 | 13.33° C | 61% | 1012.7 hPa | 0 mm | - | - | - |
| 1778037749 | 13.33° C | 60% | 1012.6 hPa | 0 mm | - | - | - |
| 1778037446 | 13.33° C | 63% | 1012.7 hPa | 0 mm | - | - | - |
| 1778037143 | 13.33° C | 65% | 1012.6 hPa | 0 mm | - | - | - |
| 1778036842 | 13.33° C | 66% | 1012.3 hPa | 0 mm | - | - | - |
| 1778036235 | 13.89° C | 65% | 1011.8 hPa | 0 mm | - | - | - |
| 1778035629 | 13.33° C | 63% | 1011.6 hPa | 0 mm | - | - | - |
| 1778035325 | 13.89° C | 66% | 1011.5 hPa | 0 mm | - | - | - |
| 1778035021 | 13.89° C | 64% | 1011.3 hPa | 0 mm | - | - | - |
| 1778034719 | 13.89° C | 64% | 1011.5 hPa | 0 mm | - | - | - |
| 1778034416 | 13.89° C | 64% | 1011.5 hPa | 0 mm | - | - | - |
| 1778033811 | 13.89° C | 67% | 1011.1 hPa | 0 mm | - | - | - |
| 1778033508 | 13.89° C | 67% | 1010.8 hPa | 0 mm | - | - | - |
| 1778033205 | 13.89° C | 64% | 1010.7 hPa | 0 mm | - | - | - |
* Rain latest hour (hover to see other rain measurements)
** Current wind speed in m/s (hover to see current wind gust speed)